Погода в Петрополисе

Бразилия     22°30′13″S   43°10′55″W
темп.,
°C
ветер,
м/с
пор.,
м/с
влажн.,
%
обл.,
%
осадки,
мм/ч
давл.,
гПа
погр.,
м
1 марта, пн
пн100:00+18с129668 0.0 101561
03:00+17с229551 0.0 101464
06:00+16с2293100 0.0 101459
09:00+23с1368100 0.0 1016579
12:00+27всв1453100 0.0 10151403
15:00+26вюв1359100 0.2 10121207
18:00+22вюв1188100 0.1 101259
21:00+20с1192100 0.2 101446
2 марта, вт
вт200:00+19с2290100 0.0 101552
03:00+18с228479 0.0 101465
06:00+18с2287100 0.0 101576
09:00+25с126495 0.0 1017767
12:00+28с135474 0.0 10161471
15:00+28всв025668 0.1 10131472
18:00+22с119070 0.6 101465
21:00+19с229484 0.7 101669
3 марта, ср
ср300:00+19с2393100 0.0 101781
03:00+18с2393100 0.0 1016105
06:00+19с239097 0.0 101797
09:00+25с246566 0.0 1018767
12:00+28ссз235120 0.0 10171449
15:00+28ссв115429 0.2 10151488
18:00+22ссв128520 1.2 101476
21:00+20с228910 1.7 101649
4 марта, чт
чт400:00+19с228617 0.1 101641
03:00+19с228446 0.1 101571
06:00+19с2386100 0.0 101593
09:00+25с246697 0.0 1016656
12:00+28ссз2351100 0.0 10151429
15:00+28ссз0248100 0.0 10121439
18:00+23св1181100 0.1 101166
21:00+21ссв2284100 0.1 101365
5 марта, пт
пт500:00+20с2384100 0.0 101374
03:00+20с238399 0.0 1011104
06:00+20ссв3583100 0.0 1011170
09:00+25с3667100 0.0 1011642
12:00+28с3654100 0.1 10101253
15:00+27с356097 0.4 10081096
18:00+21ссв2388100 1.7 1008114
21:00+21св1188100 2.8 101159